Grand Junction, CO

9:15 AM MDT on July 25, 2017 (GMT -0600)
Walker

Weather History for KGJT - March, 2012

Change the Weather History Date:

Tuesday, March 13, 2012

  Actual Average Record
Temperature  
Mean Temperature 56 °F 43 °F  
Max Temperature 70 °F 56 °F 74 °F (1900)
Min Temperature 41 °F 31 °F 16 °F (1956)
Degree Days  
Heating Degree Days 9 22  
Month to date heating degree days 294 303  
Since 1 July heating degree days 4393 4682  
Cooling Degree Days 0 0  
Month to date cooling degree days 0 0  
Year to date cooling degree days 0 0  
Growing Degree Days 6 (Base 50)    
Moisture  
Dew Point 12 °F    
Average Humidity 23    
Maximum Humidity 36    
Minimum Humidity 10    
Precipitation  
Precipitation 0.00 in 0.03 in 0.31 in (1964)
Month to date precipitation 0.20 0.33  
Year to date precipitation 1.00 1.45  
Snow  
Snow 0.00 in 0.10 in 2.80 in (1964)
Month to date snowfall 2.8 1.1  
Since 1 July snowfall 8.2 16.6  
Snow Depth 0.00 in    
Sea Level Pressure  
Sea Level Pressure 29.86 in    
Wind  
Wind Speed 12 mph (SE)    
Max Wind Speed 21 mph    
Max Gust Speed 29 mph    
Visibility 10 miles    
Events      
T = Trace of Precipitation, MM = Missing Value Source: NWS Daily Summary

Daily Weather History Graph

Daily Weather History Graph

Search for Another Location

Airport or City:

Trip Planner

Search our weather history database for the weather conditions in past years. The results will help you decide how hot, cold, wet, or windy it might be!

Date:

Astronomy

Mar. 13, 2012 Rise Set
Actual Time 7:27 AM MDT 7:19 PM MDT
Civil Twilight 7:01 AM MDT 7:46 PM MDT
Nautical Twilight 6:30 AM MDT 8:17 PM MDT
Astronomical Twilight 5:58 AM MDT 8:48 PM MDT
Moon 12:52 AM MDT (3/13) 10:46 AM MDT (3/13)
Length of Visible Light 12h 45m
Length of Day
11h 51m
Waning Gibbous, 65% of the Moon is Illuminated
Mar 13
Waning Gibbous
Mar 14
Last Quarter
Mar 22
New
Mar 30
First Quarter
Apr 6
Full

Hourly Weather History & Observations

Time (MDT) Temp. Windchill Dew Point Humidity Pressure Visibility Wind Dir Wind Speed Gust Speed Precip Events Conditions
12:53 AM 50.0 °F - 15.1 °F 25% 29.91 in 10.0 mi SE 15.0 mph - N/A   Clear
1:53 AM 48.9 °F - 15.1 °F 26% 29.88 in 10.0 mi ESE 12.7 mph - N/A   Clear
2:53 AM 48.9 °F - 15.1 °F 26% 29.88 in 10.0 mi East 12.7 mph - N/A   Clear
3:53 AM 48.0 °F - 16.0 °F 28% 29.87 in 10.0 mi ESE 12.7 mph - N/A   Clear
4:53 AM 46.9 °F - 16.0 °F 29% 29.86 in 10.0 mi ESE 16.1 mph - N/A   Clear
5:53 AM 43.0 °F 36.8 °F 16.0 °F 34% 29.88 in 10.0 mi ESE 11.5 mph - N/A   Clear
6:53 AM 42.1 °F 35.7 °F 17.1 °F 37% 29.90 in 10.0 mi ESE 11.5 mph - N/A   Clear
7:53 AM 42.1 °F 35.7 °F 17.1 °F 37% 29.92 in 10.0 mi ESE 11.5 mph - N/A   Clear
8:53 AM 50.0 °F - 17.1 °F 27% 29.92 in 10.0 mi ESE 11.5 mph - N/A   Clear
9:53 AM 53.1 °F - 16.0 °F 23% 29.95 in 10.0 mi SE 12.7 mph - N/A   Clear
10:53 AM 60.1 °F - 10.0 °F 14% 29.91 in 10.0 mi SSE 17.3 mph - N/A   Clear
11:53 AM 62.1 °F - 9.0 °F 12% 29.88 in 10.0 mi SSE 8.1 mph - N/A   Clear
12:53 PM 64.9 °F - 10.0 °F 12% 29.85 in 10.0 mi WSW 13.8 mph 21.9 mph N/A   Clear
1:53 PM 66.0 °F - 10.0 °F 11% 29.81 in 10.0 mi SW 13.8 mph - N/A   Clear
2:53 PM 68.0 °F - 10.0 °F 11% 29.77 in 10.0 mi SSE 12.7 mph 18.4 mph N/A   Clear
3:53 PM 68.0 °F - 10.0 °F 11% 29.76 in 10.0 mi South 5.8 mph - N/A   Clear
4:53 PM 69.1 °F - 10.0 °F 10% 29.75 in 10.0 mi SW 10.4 mph - N/A   Clear
5:53 PM 66.9 °F - 9.0 °F 10% 29.78 in 10.0 mi SW 15.0 mph - N/A   Clear
6:53 PM 64.0 °F - 9.0 °F 12% 29.80 in 10.0 mi South 11.5 mph - N/A   Clear
7:53 PM 57.9 °F - 8.1 °F 14% 29.85 in 10.0 mi SSE 10.4 mph - N/A   Clear
8:53 PM 48.0 °F - 7.0 °F 19% 29.87 in 10.0 mi SE 6.9 mph - N/A   Clear
9:53 PM 46.0 °F 41.9 °F 7.0 °F 20% 29.88 in 10.0 mi SE 8.1 mph - N/A   Clear
10:53 PM 48.0 °F - 7.0 °F 19% 29.87 in 10.0 mi ESE 10.4 mph - N/A   Clear
11:53 PM 46.9 °F - 9.0 °F 21% 29.86 in 10.0 mi SE 11.5 mph - N/A   Clear